Regional Weather Roundup
Issued by NWS Midland/Odessa, TX

Skip options and go directly to product.
Home | Oldest Version | Previous Version | Current Version | All | Graphics & Text | Save Text | Print | Product List | Glossary On

Skip product version selection by date and time.   
868
ASUS44 KMAF 011310
RWRMAF
MIDLAND AREA WEATHER ROUNDUP
NATIONAL WEATHER SERVICE MIDLAND TX
700 AM CST SUN FEB 01 2015

...IN SOUTHWEST TEXAS AND SOUTHEAST NEW MEXICO...

CITY           SKY/WX    TMP DP  RH WIND       PRES   REMARKS
ALPINE         CLEAR     42  37  85 S9        30.04R WCI  36
ANDREWS        FOG       44  44 100 NW5       29.96R VSB 1/4
ARTESIA        FOG       39  39 100 N12       29.97R VSB<1/4 WCI  32
BIG SPRING     CLOUDY    47  46  93 W6        29.96R
CARLSBAD       FOG       40  39  97 NE7       29.94R VSB 1/4 WCI  35
DRYDEN           N/A     45  43  93 CALM      29.93R
FORT STOCKTON  CLEAR     46  41  82 SW14      29.94R WCI  40
GUAD PASS      FOG       38  37  97 SW12      29.99R VSB<1/4 WCI  30
HOBBS          CLEAR     37  37 100 NW9       29.95R WCI  31
MARFA          CLEAR     32  30  93 N8        30.01S WCI  25
MIDLAND AIRPK  FOG       46  46 100 W8        29.95R VSB 3/4
MIDLAND INTL   FOG       45  45 100 W5        29.94R VSB 1/4
ODESSA         FOG       43  42  97 W8        29.95R VSB 1/4 WCI  38
PECOS          CLEAR     37  37  97 CALM      29.95R
PRESIDIO       FAIR      47  42  83 N7        29.98R
SEMINOLE       CLEAR     39  39 100 NW6       29.96R WCI  35
SNYDER         PTCLDY   N/A N/A N/A NW6       29.94R FOG
WINK           FOG       40  38  93 N7        29.95R VSB 1/4 WCI  35
$$
...OTHER STATIONS IN TEXAS...

CITY           SKY/WX    TMP DP  RH WIND       PRES   REMARKS
ABILENE        CLOUDY    52  49  89 NW9       29.92R
AMARILLO       MOCLDY    35  33  92 N13       30.01R WCI  26
AUSTIN         CLOUDY    61  60  97 S7        29.89R
BROWNSVILLE    CLOUDY    65  62  90 S10       29.90R
CORPUS CHRISTI MOCLDY    57  57 100 E6        29.91S
DALLAS FTW     CLOUDY    57  56  96 SW9       29.85R
DEL RIO        CLOUDY    56  55  97 W5        29.92R FOG
EL PASO        CLOUDY    43  41  93 S9        29.98R WCI  38
HOUSTON INT    MOCLDY    63  62  97 S5        29.93R FOG
LUBBOCK        PTCLDY    40  38  93 N13       29.95R WCI  32
SAN ANGELO     CLEAR     47  46  97 SW7       29.90R
SAN ANTONIO    FOG       61  60  97 S3        29.91R VSB 1
WACO           PTCLDY    58  57  97 S10       29.86R
WICHITA FALLS  NOT AVBL
$$
...OTHER LOCATIONS IN NEW MEXICO...

CITY           SKY/WX    TMP DP  RH WIND       PRES   REMARKS
ALAMAGORDO     CLEAR     41  41 100 N10       30.00R WCI  35
ALBUQUERQUE    PTCLDY    34  30  85 NW3       30.05R
CANNON AFB     NOT AVBL
CLOVIS         CLEAR     34  30  86 N13       29.98R WCI  25
HOLLOMAN AFB   CLEAR     39  39 100 N9        29.98R WCI  33
ROSWELL        FOG       39  38  96 N5        29.98R VSB 1/2 WCI  36
RUIDOSO        CLEAR     34  32  93 NW15G24   30.01R WCI  24
SANTA FE       FOG       25  22  88 CALM      30.02R VSB 1/2
TRUTH OR CONSE PTCLDY    37  35  92 N6        30.02R WCI  32
TUCUMCARI      CLOUDY    33  32  96 N6        30.01R WCI  28
$$

USA.gov is the U.S. government's official web portal to all federal, state and local government web resources and services.